Погода в Никулино

Россия / Костромская область     58°05′37″N   44°14′06″E
темп.,
°C
ветер,
м/с
пор.,
м/с
влажн.,
%
обл.,
%
осадки,
мм/ч
давл.,
гПа
погр.,
м
14 апреля, ср
ср1400:00+8ю3128768 0.0 1026235
03:00+7ю31283100 0.0 1026223
06:00+7ю3108292 0.0 1026176
09:00+14ю485885 0.0 1025369
12:00+18ю584399 0.0 10231045
15:00+19ю573718 0.0 10221418
18:00+15ю385486 0.0 1021275
21:00+10ю31073100 0.0 1021182
15 апреля, чт
чт1500:00+9ю2778100 0.0 1020137
03:00+7ююз2379100 0.0 101945
06:00+7зюз2278100 0.0 101933
09:00+13зюз115344 0.0 1019303
12:00+17ссз224369 0.0 10191193
15:00+10ссв7973100 0.0 1021563
18:00+7св61376100 0.0 1023598
21:00+5св51281100 0.0 1025664
16 апреля, пт
пт1600:00+5св51180100 0.0 1026759
03:00+4св51171100 0.0 1026668
06:00+3св51264100 0.0 1027616
09:00+6всв594618 0.0 1028765
12:00+10всв56335 0.0 10281195
15:00+11всв45315 0.0 10281364
18:00+9св37425 0.0 1028478
21:00+4св38645 0.0 1029153
17 апреля, сб
сб1700:00+2св287216 0.0 1030149
03:00+1св257720 0.0 1031105
06:00+1св24745 0.0 1032111
09:00+8св35480 0.0 1031709
12:00+11ссв34395 0.0 10311470
15:00+12с45395 0.0 10301867
18:00+10с47486 0.0 1030690
21:00+5с3106913 0.0 1032249
18 апреля, вс
вс1800:00+3ссв28762 0.0 1033180
03:00+1ссв25830 0.0 103497
06:00+2ссв24800 0.0 1034117
09:00+7ссв23541 0.0 1034772
12:00+11с23435 0.0 10341545
15:00+9ссв564293 0.0 10351886
18:00+9св365397 0.0 1034449
21:00+6всв247075 0.0 103580